4XHSC LLRS-LLRS

Flight info

Callsign 4XHSC
Flight time 0h 18m
Altitude 800
Route LSA ROUTES
Aircraft EV97/L-V/N

Departure

Time 2026-04-27 11:54
Airport Rishon Lezion Airfield (LLRS)

Arrival

Time 2026-04-27 12:13
Airport Rishon Lezion Airfield (LLRS)
Time Latitude Longitude Altitude Speed Heading
2026-04-27 11:07 31.96924 34.75324 70 ft 0 kts 88°
2026-04-27 11:09 31.96924 34.75323 70 ft 0 kts 88°
2026-04-27 11:12 31.96924 34.75322 70 ft 0 kts 88°
2026-04-27 11:14 31.96924 34.75332 70 ft 6 kts 86°
2026-04-27 11:14 31.96917 34.75340 70 ft 5 kts 180°
2026-04-27 11:14 31.96846 34.75333 70 ft 14 kts 179°
2026-04-27 11:15 31.96726 34.75334 69 ft 21 kts 180°
2026-04-27 11:15 31.96563 34.75334 66 ft 26 kts 181°
2026-04-27 11:15 31.96412 34.75337 71 ft 19 kts 182°
2026-04-27 11:15 31.96345 34.75341 68 ft 0 kts 126°
2026-04-27 11:17 31.96339 34.75351 71 ft 6 kts 125°
2026-04-27 11:17 31.96340 34.75358 71 ft 0 kts
2026-04-27 11:17 31.96424 34.75358 69 ft 35 kts 355°
2026-04-27 11:18 31.96745 34.75331 127 ft 53 kts 326°
2026-04-27 11:18 31.96901 34.74924 258 ft 66 kts 269°
2026-04-27 11:18 31.96462 34.74599 399 ft 93 kts 203°
2026-04-27 11:18 31.95765 34.74441 421 ft 107 kts 201°
2026-04-27 11:19 31.95033 34.74290 396 ft 105 kts 199°
2026-04-27 11:19 31.94312 34.74196 385 ft 106 kts 191°
2026-04-27 11:19 31.93579 34.74159 385 ft 104 kts 187°
2026-04-27 11:19 31.92861 34.74119 391 ft 102 kts 193°
2026-04-27 11:20 31.92155 34.74042 385 ft 101 kts 192°
2026-04-27 11:20 31.91482 34.73969 406 ft 94 kts 195°
2026-04-27 11:20 31.90839 34.73850 432 ft 93 kts 202°
2026-04-27 11:20 31.90322 34.73645 408 ft 91 kts 207°
2026-04-27 11:21 31.90296 34.73633 405 ft 91 kts 210°
2026-04-27 11:21 31.89720 34.73344 405 ft 91 kts 210°
2026-04-27 11:21 31.89130 34.73058 406 ft 93 kts 205°
2026-04-27 11:22 31.88546 34.72750 403 ft 91 kts 214°
2026-04-27 11:22 31.88469 34.72702 403 ft 91 kts 216°
2026-04-27 11:22 31.87944 34.72307 416 ft 93 kts 222°
2026-04-27 11:22 31.87502 34.71975 417 ft 94 kts 216°
2026-04-27 11:23 31.86905 34.71621 410 ft 98 kts 211°
2026-04-27 11:23 31.86255 34.71372 421 ft 99 kts 206°
2026-04-27 11:23 31.85594 34.71166 435 ft 98 kts 205°
2026-04-27 11:23 31.84907 34.71050 422 ft 102 kts 189°
2026-04-27 11:24 31.84213 34.71091 411 ft 97 kts 191°
2026-04-27 11:24 31.83591 34.70905 416 ft 91 kts 220°
2026-04-27 11:24 31.83059 34.70492 421 ft 91 kts 226°
2026-04-27 11:24 31.82524 34.70114 429 ft 93 kts 205°
2026-04-27 11:25 31.81865 34.70019 420 ft 97 kts 198°
2026-04-27 11:25 31.81225 34.69806 421 ft 93 kts 221°
2026-04-27 11:25 31.80671 34.69406 431 ft 95 kts 220°
2026-04-27 11:25 31.80123 34.68953 434 ft 96 kts 227°
2026-04-27 11:26 31.79575 34.68461 455 ft 101 kts 229°
2026-04-27 11:26 31.79049 34.67931 457 ft 100 kts 229°
2026-04-27 11:26 31.78531 34.67405 438 ft 96 kts 229°
2026-04-27 11:26 31.77994 34.66919 420 ft 98 kts 219°
2026-04-27 11:27 31.77313 34.66796 421 ft 102 kts 186°
2026-04-27 11:27 31.76593 34.66843 456 ft 104 kts 189°
2026-04-27 11:27 31.75983 34.66732 441 ft 96 kts 209°
2026-04-27 11:28 31.75753 34.66606 449 ft 95 kts 217°
2026-04-27 11:28 31.75339 34.66068 437 ft 87 kts 251°
2026-04-27 11:28 31.75114 34.65410 440 ft 90 kts 252°
2026-04-27 11:28 31.74701 34.64854 463 ft 93 kts 221°
2026-04-27 11:29 31.74084 34.64544 459 ft 99 kts 211°
2026-04-27 11:29 31.73467 34.64247 418 ft 95 kts 214°
2026-04-27 11:29 31.72880 34.63908 412 ft 91 kts 217°
2026-04-27 11:29 31.72562 34.63693 428 ft 93 kts 218°
2026-04-27 11:30 31.72218 34.63459 450 ft 98 kts 217°
2026-04-27 11:30 31.71645 34.62991 448 ft 103 kts 221°
2026-04-27 11:30 31.71052 34.62544 423 ft 99 kts 215°
2026-04-27 11:31 31.70471 34.62130 415 ft 96 kts 215°
2026-04-27 11:31 31.69926 34.61694 412 ft 94 kts 215°
2026-04-27 11:31 31.69317 34.61424 427 ft 93 kts 200°
2026-04-27 11:31 31.68703 34.61177 426 ft 93 kts 203°
2026-04-27 11:32 31.68083 34.60994 423 ft 93 kts 187°
2026-04-27 11:32 31.67443 34.60905 426 ft 92 kts 197°
2026-04-27 11:32 31.66831 34.60696 427 ft 92 kts 194°
2026-04-27 11:32 31.66197 34.60786 418 ft 95 kts 162°
2026-04-27 11:33 31.65582 34.61054 417 ft 94 kts 163°
2026-04-27 11:33 31.64956 34.61289 417 ft 94 kts 167°
2026-04-27 11:33 31.64332 34.61514 410 ft 95 kts 154°
2026-04-27 11:33 31.63832 34.62008 424 ft 94 kts 140°
2026-04-27 11:34 31.63338 34.62516 428 ft 94 kts 144°
2026-04-27 11:34 31.62816 34.62977 439 ft 93 kts 148°
2026-04-27 11:34 31.62227 34.63245 450 ft 91 kts 173°
2026-04-27 11:34 31.61591 34.63328 456 ft 92 kts 179°
2026-04-27 11:35 31.60965 34.63504 468 ft 92 kts 165°
2026-04-27 11:35 31.60344 34.63539 468 ft 91 kts 188°
2026-04-27 11:35 31.59705 34.63533 473 ft 92 kts 178°
2026-04-27 11:35 31.59077 34.63705 467 ft 93 kts 161°
2026-04-27 11:36 31.58471 34.63956 481 ft 93 kts 166°
2026-04-27 11:36 31.57838 34.64081 483 ft 93 kts 187°
2026-04-27 11:36 31.57214 34.63932 488 ft 90 kts 197°
2026-04-27 11:36 31.56580 34.63928 483 ft 92 kts 180°
2026-04-27 11:37 31.55945 34.63898 491 ft 91 kts 193°
2026-04-27 11:37 31.55337 34.64065 488 ft 94 kts 145°
2026-04-27 11:37 31.54777 34.64283 521 ft 86 kts 201°
2026-04-27 11:37 31.54194 34.64408 486 ft 94 kts 138°
2026-04-27 11:38 31.53759 34.64980 502 ft 95 kts 129°
2026-04-27 11:38 31.53397 34.65622 514 ft 94 kts 124°
2026-04-27 11:38 31.53065 34.66287 523 ft 94 kts 119°
2026-04-27 11:38 31.52772 34.66977 532 ft 94 kts 118°
2026-04-27 11:39 31.52473 34.67659 538 ft 94 kts 120°
2026-04-27 11:39 31.52009 34.68153 530 ft 93 kts 128°
2026-04-27 11:39 31.51875 34.68861 578 ft 86 kts 124°
2026-04-27 11:39 31.51355 34.69156 614 ft 83 kts 165°
2026-04-27 11:40 31.50960 34.69589 614 ft 86 kts 108°
2026-04-27 11:40 31.50775 34.70259 631 ft 88 kts 109°
2026-04-27 11:40 31.50586 34.70946 659 ft 89 kts 109°
2026-04-27 11:40 31.50394 34.71638 677 ft 90 kts 111°
2026-04-27 11:41 31.50073 34.72229 706 ft 85 kts 161°
2026-04-27 11:41 31.49500 34.72308 714 ft 85 kts 193°
2026-04-27 11:41 31.48915 34.72184 728 ft 85 kts 186°
2026-04-27 11:41 31.48318 34.72194 745 ft 86 kts 184°
2026-04-27 11:42 31.47731 34.72057 792 ft 85 kts 199°
2026-04-27 11:42 31.47182 34.71840 913 ft 87 kts 202°
2026-04-27 11:42 31.46589 34.71885 930 ft 89 kts 162°
2026-04-27 11:42 31.46000 34.72144 953 ft 91 kts 163°
2026-04-27 11:43 31.45451 34.72130 965 ft 77 kts 226°
2026-04-27 11:43 31.45185 34.71605 937 ft 75 kts 246°
2026-04-27 11:43 31.45197 34.71057 891 ft 71 kts 313°
2026-04-27 11:43 31.45626 34.71052 790 ft 69 kts 35°
2026-04-27 11:44 31.45919 34.71497 681 ft 68 kts 54°
2026-04-27 11:44 31.46150 34.71899 654 ft 47 kts 56°
2026-04-27 11:44 31.46290 34.72147 668 ft 28 kts 59°
2026-04-27 11:44 31.46340 34.72277 675 ft 10 kts 41°
2026-04-27 11:45 31.46349 34.72277 675 ft 0 kts 286°
2026-04-27 11:45 31.46348 34.72270 675 ft 4 kts 252°
2026-04-27 11:46 31.46327 34.72218 672 ft 10 kts 238°
2026-04-27 11:46 31.46280 34.72129 666 ft 15 kts 237°
2026-04-27 11:46 31.46214 34.72014 660 ft 19 kts 236°
2026-04-27 11:46 31.46135 34.71873 653 ft 22 kts 243°
2026-04-27 11:47 31.46047 34.71722 646 ft 19 kts 237°
2026-04-27 11:47 31.46025 34.71654 645 ft 0 kts 144°
2026-04-27 11:47 31.46011 34.71668 644 ft 0 kts 53°
2026-04-27 11:47 31.46073 34.71771 648 ft 37 kts 58°
2026-04-27 11:48 31.46285 34.72147 687 ft 69 kts 57°
2026-04-27 11:48 31.46543 34.72673 805 ft 79 kts 68°
2026-04-27 11:48 31.46742 34.73307 923 ft 88 kts 68°
2026-04-27 11:48 31.46974 34.73990 1051 ft 92 kts 67°
2026-04-27 11:49 31.47402 34.74552 1169 ft 93 kts 40°
2026-04-27 11:49 31.47893 34.75071 1293 ft 95 kts 40°
2026-04-27 11:49 31.48377 34.75580 1460 ft 94 kts 40°
2026-04-27 11:49 31.48884 34.76099 1482 ft 99 kts 39°
2026-04-27 11:50 31.49417 34.76627 1497 ft 101 kts 39°
2026-04-27 11:50 31.49967 34.77149 1486 ft 101 kts 34°
2026-04-27 11:50 31.50568 34.77578 1484 ft 101 kts 29°
2026-04-27 11:50 31.51187 34.77979 1506 ft 102 kts 26°
2026-04-27 11:51 31.51795 34.78374 1500 ft 100 kts 28°
2026-04-27 11:51 31.52397 34.78783 1520 ft 102 kts 28°
2026-04-27 11:51 31.53699 34.79449 1525 ft 102 kts 17°
2026-04-27 11:52 31.54376 34.79698 1512 ft 102 kts 14°
2026-04-27 11:52 31.55063 34.79900 1510 ft 102 kts 12°
2026-04-27 11:52 31.55747 34.80114 1517 ft 101 kts 11°
2026-04-27 11:52 31.56438 34.80301 1511 ft 101 kts
2026-04-27 11:53 31.57126 34.80449 1481 ft 101 kts
2026-04-27 11:53 31.57807 34.80619 1486 ft 101 kts 11°
2026-04-27 11:53 31.58482 34.80820 1439 ft 101 kts 14°
2026-04-27 11:53 31.59149 34.81056 1262 ft 98 kts 14°
2026-04-27 11:54 31.59812 34.81238 1177 ft 98 kts
2026-04-27 11:54 31.60489 34.81352 1148 ft 97 kts
2026-04-27 11:54 31.61090 34.81400 1121 ft 98 kts
2026-04-27 11:54 31.61762 34.81434 1121 ft 95 kts 359°
2026-04-27 11:55 31.62423 34.81436 1106 ft 95 kts 359°
2026-04-27 11:55 31.63069 34.81449 1153 ft 91 kts 355°
2026-04-27 11:55 31.63683 34.81358 1175 ft 91 kts 348°
2026-04-27 11:55 31.64300 34.81202 1193 ft 92 kts 344°
2026-04-27 11:56 31.64920 34.81012 1204 ft 92 kts 343°
2026-04-27 11:56 31.65543 34.80827 1213 ft 92 kts 345°
2026-04-27 11:56 31.66179 34.80673 1222 ft 93 kts 347°
2026-04-27 11:56 31.66818 34.80579 1211 ft 91 kts 357°
2026-04-27 11:57 31.67239 34.80605 1212 ft 93 kts
2026-04-27 11:57 31.67875 34.80756 1225 ft 93 kts 13°
2026-04-27 11:57 31.68498 34.80997 1224 ft 95 kts 17°
2026-04-27 11:57 31.69124 34.81242 1242 ft 96 kts 18°
2026-04-27 11:58 31.69749 34.81532 1254 ft 98 kts 20°
2026-04-27 11:58 31.70401 34.81772 1249 ft 98 kts
2026-04-27 11:58 31.71065 34.81874 1255 ft 95 kts
2026-04-27 11:58 31.71724 34.81957 1248 ft 95 kts
2026-04-27 11:59 31.72380 34.81985 1277 ft 96 kts
2026-04-27 11:59 31.73054 34.82034 1291 ft 96 kts
2026-04-27 11:59 31.73730 34.82039 1262 ft 97 kts 359°
2026-04-27 11:59 31.74395 34.82164 1250 ft 98 kts 12°
2026-04-27 12:00 31.75068 34.82332 1249 ft 98 kts 10°
2026-04-27 12:00 31.75720 34.82515 1223 ft 95 kts 14°
2026-04-27 12:00 31.76344 34.82744 1222 ft 93 kts 19°
2026-04-27 12:00 31.76952 34.83039 1236 ft 96 kts 19°
2026-04-27 12:01 31.77565 34.83361 1233 ft 97 kts 25°
2026-04-27 12:01 31.78159 34.83705 1239 ft 97 kts 24°
2026-04-27 12:01 31.78773 34.84040 1262 ft 99 kts 22°
2026-04-27 12:01 31.79413 34.84362 1242 ft 99 kts 20°
2026-04-27 12:02 31.80056 34.84648 1222 ft 99 kts 18°
2026-04-27 12:02 31.80704 34.84906 1201 ft 99 kts 16°
2026-04-27 12:02 31.81351 34.85181 1206 ft 98 kts 18°
2026-04-27 12:02 31.81990 34.85465 1187 ft 99 kts 19°
2026-04-27 12:03 31.82613 34.85788 1180 ft 99 kts 24°
2026-04-27 12:03 31.83235 34.86135 1170 ft 98 kts 22°
2026-04-27 12:03 31.83852 34.86459 1173 ft 96 kts 23°
2026-04-27 12:03 31.84466 34.86781 1187 ft 96 kts 18°
2026-04-27 12:04 31.85110 34.87012 1197 ft 97 kts 13°
2026-04-27 12:04 31.85759 34.87195 1202 ft 94 kts 10°
2026-04-27 12:04 31.86395 34.87347 1207 ft 94 kts
2026-04-27 12:04 31.87041 34.87532 1218 ft 97 kts 16°
2026-04-27 12:05 31.87678 34.87770 1210 ft 95 kts 15°
2026-04-27 12:05 31.88317 34.88013 1232 ft 98 kts 16°
2026-04-27 12:05 31.88958 34.88278 1238 ft 97 kts 19°
2026-04-27 12:05 31.89581 34.88562 1212 ft 97 kts 18°
2026-04-27 12:06 31.90222 34.88811 1217 ft 97 kts
2026-04-27 12:06 31.90840 34.88607 1233 ft 95 kts 313°
2026-04-27 12:06 31.91152 34.87937 1249 ft 93 kts 293°
2026-04-27 12:06 31.91417 34.87241 1232 ft 93 kts 294°
2026-04-27 12:07 31.91673 34.86541 1243 ft 93 kts 291°
2026-04-27 12:07 31.91869 34.85817 1240 ft 93 kts 284°
2026-04-27 12:07 31.92060 34.85093 1228 ft 93 kts 289°
2026-04-27 12:07 31.92272 34.84377 1216 ft 93 kts 290°
2026-04-27 12:08 31.92520 34.83686 1159 ft 89 kts 296°
2026-04-27 12:08 31.92800 34.83050 1004 ft 86 kts 297°
2026-04-27 12:08 31.93115 34.82456 860 ft 85 kts 309°
2026-04-27 12:08 31.93571 34.82001 688 ft 88 kts 322°
2026-04-27 12:09 31.94058 34.81578 525 ft 89 kts 321°
2026-04-27 12:09 31.94502 34.81017 476 ft 93 kts 300°
2026-04-27 12:09 31.94742 34.80324 476 ft 92 kts 283°
2026-04-27 12:09 31.94827 34.79589 459 ft 88 kts 281°
2026-04-27 12:10 31.94955 34.78900 395 ft 87 kts 282°
2026-04-27 12:10 31.95082 34.78216 396 ft 84 kts 282°
2026-04-27 12:10 31.95260 34.77588 402 ft 82 kts 307°
2026-04-27 12:10 31.95644 34.77086 387 ft 82 kts 311°
2026-04-27 12:11 31.96017 34.76572 377 ft 83 kts 307°
2026-04-27 12:11 31.96368 34.76047 383 ft 81 kts 307°
2026-04-27 12:11 31.96685 34.75501 374 ft 81 kts 295°
2026-04-27 12:11 31.96779 34.74857 365 ft 80 kts 256°
2026-04-27 12:12 31.96346 34.74486 357 ft 83 kts 193°
2026-04-27 12:12 31.95818 34.74385 353 ft 72 kts 191°
2026-04-27 12:12 31.95377 34.74614 337 ft 79 kts 116°
2026-04-27 12:12 31.95358 34.75229 323 ft 75 kts 65°
2026-04-27 12:13 31.95748 34.75422 267 ft 67 kts 336°
2026-04-27 12:13 31.96203 34.75359 143 ft 69 kts 358°
2026-04-27 12:13 31.96614 34.75356 70 ft 48 kts 359°
2026-04-27 12:13 31.96843 34.75355 70 ft 17 kts 360°
2026-04-27 12:14 31.96917 34.75382 70 ft 7 kts 16°
2026-04-27 12:14 31.96929 34.75386 70 ft 0 kts